Location: Narragansett
(41.4496°N, 71.4488°W)
Time: 15:46:22
(UTC+00:00)

Nauka - Pass Details

Date: 23 September 2021
Orbit: 417 x 423 km, 51.6° (Epoch: 24 October)

Event Time Altitude Azimuth Distance (km) Brightness Sun altitude
Rises 01:05:31 0° 298° (WNW) 2,365 ? -26.8°
Reaches altitude 10° 01:08:21 10° 324° (NW) 1,503 ? -27.2°
Enters shadow 01:09:34 14° 345° (NNW) 1,297 ? -27.4°
